Weather History for Willmar, MN

Change the Weather History Date:

Saturday, January 19, 2013

  Actual Average (KLJF) Record (KLJF)
Temperature  
Mean Temperature 18 °F -  
Max Temperature 35 °F 21 °F 44 °F (1981)
Min Temperature -2 °F 1 °F -31 °F (1970)
Degree Days  
Heating Degree Days 48    
Moisture  
Dew Point 12 °F    
Average Humidity 76    
Maximum Humidity 93    
Minimum Humidity 61    
Precipitation  
Precipitation 0.00 in - - ()
Sea Level Pressure  
Sea Level Pressure 29.92 in    
Wind  
Wind Speed 14 mph (WNW)    
Max Wind Speed 44 mph    
Max Gust Speed 51 mph    
Visibility 10 miles    
Events      
Averages and records for this station are not official NWS values.
T = Trace of Precipitation, MM = Missing Value Source: NWS Daily Summary

Daily Weather History Graph

Daily Weather History Graph

Search for Another Location

Airport:

Trip Planner

Search our weather history database for the weather conditions in past years. The results will help you decide how hot, cold, wet, or windy it might be!

Date:

Astronomy

Jan. 19, 2013 Rise Set
Actual Time 7:52 AM CST 5:10 PM CST
Civil Twilight 7:20 AM CST 5:42 PM CST
Nautical Twilight 6:44 AM CST 6:19 PM CST
Astronomical Twilight 6:09 AM CST 6:54 PM CST
Moon 11:40 AM CST (1/19) 1:23 AM CST (1/19)
Length of Visible Light 10h 22m
Length of Day
9h 17m
First Quarter, 57% of the Moon is Illuminated
Jan 19
First Quarter
Jan 26
Full
Feb 3
Last Quarter
Feb 10
New
Feb 17
First Quarter

Hourly Weather History & Observations

Time (CST) Temp. Windchill Dew Point Humidity Pressure Visibility Wind Dir Wind Speed Gust Speed Precip Events Conditions
12:15 AM 24.8 °F 20.5 °F 21.2 °F 86% 29.75 in 10.0 mi SSE 3.5 mph - N/A   Clear
12:36 AM 21.2 °F 16.4 °F 19.4 °F 93% 29.74 in 10.0 mi SE 3.5 mph - N/A   Clear
12:55 AM 21.2 °F 16.4 °F 19.4 °F 93% 29.73 in 10.0 mi ESE 3.5 mph - N/A   Clear
1:15 AM 23.0 °F 17.0 °F 21.2 °F 93% 29.73 in 10.0 mi SE 4.6 mph - N/A   Clear
1:36 AM 24.8 °F 20.5 °F 21.2 °F 86% 29.73 in 10.0 mi SE 3.5 mph - N/A   Clear
1:55 AM 24.8 °F 20.5 °F 21.2 °F 86% 29.73 in 10.0 mi SSE 3.5 mph - N/A   Clear
2:15 AM 24.8 °F 19.1 °F 21.2 °F 86% 29.74 in 10.0 mi ESE 4.6 mph - N/A   Clear
2:36 AM 23.0 °F 15.8 °F 21.2 °F 93% 29.73 in 10.0 mi SE 5.8 mph - N/A   Clear
2:55 AM 24.8 °F 16.9 °F 21.2 °F 86% 29.71 in 10.0 mi SE 6.9 mph - N/A   Clear
3:15 AM 24.8 °F 19.1 °F 21.2 °F 86% 29.71 in 10.0 mi SSE 4.6 mph - N/A   Clear
3:36 AM 23.0 °F 15.8 °F 21.2 °F 93% 29.69 in 10.0 mi SSE 5.8 mph - N/A   Clear
3:55 AM 24.8 °F - 23.0 °F 93% 29.72 in 10.0 mi Calm Calm - N/A   Clear
4:15 AM 24.8 °F 20.5 °F 21.2 °F 86% 29.70 in 10.0 mi SSW 3.5 mph - N/A   Clear
4:36 AM 21.2 °F - 19.4 °F 93% 29.71 in 10.0 mi Calm Calm - N/A   Clear
4:55 AM 21.2 °F - 17.6 °F 86% 29.70 in 10.0 mi Calm Calm - N/A   Clear
5:15 AM 23.0 °F 17.0 °F 21.2 °F 93% 29.71 in 10.0 mi WSW 4.6 mph - N/A   Clear
5:35 AM 23.0 °F 14.7 °F 21.2 °F 93% 29.70 in 10.0 mi WSW 6.9 mph - N/A   Clear
5:55 AM 24.8 °F 16.9 °F 23.0 °F 93% 29.70 in 10.0 mi WSW 6.9 mph - N/A   Clear
6:15 AM 24.8 °F 16.1 °F 21.2 °F 86% 29.69 in 10.0 mi WSW 8.1 mph - N/A   Clear
6:35 AM 26.6 °F 18.2 °F 23.0 °F 86% 29.71 in 10.0 mi West 8.1 mph - N/A   Clear
6:55 AM 28.4 °F 18.5 °F 24.8 °F 86% 29.72 in 10.0 mi West 11.5 mph - N/A   Clear
7:15 AM 30.2 °F 20.8 °F 24.8 °F 80% 29.72 in 10.0 mi West 11.5 mph - N/A   Clear
7:35 AM 30.2 °F 21.3 °F 24.8 °F 80% 29.73 in 10.0 mi West 10.4 mph - N/A   Clear
7:55 AM 30.2 °F 20.2 °F 24.8 °F 80% 29.74 in 10.0 mi West 12.7 mph - N/A   Clear
8:15 AM 30.2 °F 20.8 °F 24.8 °F 80% 29.74 in 10.0 mi West 11.5 mph - N/A   Clear
8:35 AM 30.2 °F 20.2 °F 24.8 °F 80% 29.75 in 10.0 mi West 12.7 mph - N/A   Clear
8:55 AM 30.2 °F 20.2 °F 24.8 °F 80% 29.76 in 10.0 mi WNW 12.7 mph - N/A   Clear
9:15 AM 30.2 °F 19.8 °F 24.8 °F 80% 29.78 in 10.0 mi West 13.8 mph - N/A   Clear
9:35 AM 33.8 °F 24.8 °F 26.6 °F 75% 29.78 in 10.0 mi WNW 12.7 mph 18.4 mph N/A   Clear
9:55 AM 33.8 °F 23.9 °F 26.6 °F 75% 29.80 in 10.0 mi WNW 15.0 mph 20.7 mph N/A   Clear
10:15 AM 33.8 °F 24.8 °F 26.6 °F 75% 29.80 in 10.0 mi West 12.7 mph - N/A   Clear
10:35 AM 35.6 °F 27.5 °F 26.6 °F 70% 29.80 in 10.0 mi West 11.5 mph 16.1 mph N/A   Clear
10:55 AM 35.6 °F 25.5 °F 28.4 °F 75% 29.80 in 10.0 mi WNW 17.3 mph - N/A   Clear
11:15 AM 35.6 °F 24.8 °F 28.4 °F 75% 29.81 in 10.0 mi WNW 19.6 mph 25.3 mph N/A   Clear
11:35 AM 35.6 °F 25.2 °F 28.4 °F 75% 29.80 in 10.0 mi WNW 18.4 mph 28.8 mph N/A   Clear
11:55 AM 35.6 °F 24.2 °F 28.4 °F 75% 29.80 in 10.0 mi WNW 21.9 mph 27.6 mph N/A   Clear
12:15 PM 35.6 °F 24.5 °F 28.4 °F 75% 29.80 in 10.0 mi WNW 20.7 mph 31.1 mph N/A   Mostly Cloudy
12:35 PM 35.6 °F 21.7 °F 26.6 °F 70% 29.82 in 10.0 mi WNW 34.5 mph 40.3 mph N/A   Overcast
12:55 PM 26.6 °F 8.1 °F 19.4 °F 74% 29.86 in 10.0 mi NW 41.4 mph 48.3 mph N/A   Overcast
1:15 PM 23.0 °F 2.6 °F 15.8 °F 74% 29.88 in 10.0 mi NW 43.7 mph 50.6 mph N/A   Overcast
1:35 PM 21.2 °F 1.7 °F 12.2 °F 68% 29.89 in 10.0 mi NW 35.7 mph 41.4 mph N/A   Mostly Cloudy
1:56 PM 19.4 °F 0.2 °F 12.2 °F 74% 29.92 in 10.0 mi NW 31.1 mph 43.7 mph N/A   Overcast
2:15 PM 17.6 °F -2.2 °F 8.6 °F 68% 29.93 in 10.0 mi NW 31.1 mph 41.4 mph N/A   Mostly Cloudy
2:35 PM 15.8 °F -5.8 °F 6.8 °F 68% 29.94 in 10.0 mi NW 35.7 mph 41.4 mph N/A   Mostly Cloudy
2:56 PM 15.8 °F -5.2 °F 6.8 °F 68% 29.96 in 10.0 mi NW 33.4 mph 43.7 mph N/A   Overcast
3:15 PM 15.8 °F -5.5 °F 5.0 °F 62% 29.97 in 10.0 mi NW 34.5 mph 46.0 mph N/A   Overcast
3:35 PM 14.0 °F -8.5 °F 5.0 °F 67% 29.99 in 10.0 mi NW 36.8 mph 43.7 mph N/A   Mostly Cloudy
3:55 PM 12.2 °F -11.0 °F 3.2 °F 67% 30.01 in 10.0 mi NW 36.8 mph 44.9 mph N/A   Scattered Clouds
4:15 PM 12.2 °F -9.9 °F 3.2 °F 67% 30.03 in 10.0 mi NW 32.2 mph 40.3 mph N/A   Mostly Cloudy
4:36 PM 10.4 °F -14.1 °F 1.4 °F 67% 30.04 in 7.0 mi NW 39.1 mph 46.0 mph N/A   Mostly Cloudy
4:55 PM 8.6 °F -16.3 °F -0.4 °F 67% 30.07 in 7.0 mi NW 38.0 mph 44.9 mph N/A   Mostly Cloudy
5:15 PM 8.6 °F -15.7 °F -2.2 °F 62% 30.09 in 10.0 mi NW 35.7 mph 42.6 mph N/A   Scattered Clouds
5:36 PM 6.8 °F -18.2 °F -2.2 °F 67% 30.11 in 10.0 mi NW 35.7 mph 48.3 mph N/A   Scattered Clouds
5:55 PM 6.8 °F -17.6 °F -4.0 °F 61% 30.13 in 10.0 mi NW 33.4 mph 43.7 mph N/A   Scattered Clouds
6:15 PM 5.0 °F -20.1 °F -5.8 °F 61% 30.14 in 10.0 mi NW 33.4 mph 46.0 mph N/A   Clear
6:36 PM 3.2 °F -20.3 °F -5.8 °F 66% 30.16 in 10.0 mi NW 26.5 mph 39.1 mph N/A   Clear
6:55 PM 3.2 °F -22.9 °F -4.0 °F 72% 30.18 in 5.0 mi NW 34.5 mph 40.3 mph N/A   Haze
7:15 PM 3.2 °F -22.2 °F -5.8 °F 66% 30.19 in 10.0 mi NW 32.2 mph 38.0 mph N/A   Overcast
7:36 PM 1.4 °F -25.0 °F -7.6 °F 66% 30.20 in 10.0 mi NW 33.4 mph 40.3 mph N/A   Scattered Clouds
7:55 PM 1.4 °F -22.3 °F -5.8 °F 72% 30.21 in 10.0 mi WNW 25.3 mph 35.7 mph N/A   Scattered Clouds
8:15 PM 1.4 °F -22.7 °F -7.6 °F 66% 30.21 in 10.0 mi WNW 26.5 mph 40.3 mph N/A   Scattered Clouds
8:35 PM 1.4 °F -23.5 °F -5.8 °F 72% 30.23 in 10.0 mi NW 28.8 mph 35.7 mph N/A   Scattered Clouds
8:55 PM 1.4 °F -23.5 °F -7.6 °F 66% 30.24 in 10.0 mi NW 28.8 mph 35.7 mph N/A   Scattered Clouds
9:15 PM -0.4 °F -25.6 °F -9.4 °F 66% 30.25 in 10.0 mi NW 27.6 mph 34.5 mph N/A   Scattered Clouds
9:35 PM -0.4 °F -21.7 °F -7.6 °F 72% 30.24 in 10.0 mi NW 18.4 mph 27.6 mph N/A   Scattered Clouds
9:55 PM -0.4 °F -23.8 °F -7.6 °F 72% 30.24 in 10.0 mi NW 23.0 mph 27.6 mph N/A   Mostly Cloudy
10:16 PM -0.4 °F -21.2 °F -7.6 °F 72% 30.25 in 10.0 mi WNW 17.3 mph 24.2 mph N/A   Scattered Clouds
10:35 PM -0.4 °F -21.2 °F -7.6 °F 72% 30.26 in 7.0 mi WNW 17.3 mph - N/A   Mostly Cloudy
10:55 PM -0.4 °F -23.3 °F -7.6 °F 72% 30.27 in 7.0 mi NW 21.9 mph 29.9 mph N/A   Mostly Cloudy
11:16 PM -0.4 °F -21.7 °F -7.6 °F 72% 30.29 in 7.0 mi NW 18.4 mph - N/A   Mostly Cloudy
11:35 PM -0.4 °F -21.7 °F -7.6 °F 72% 30.28 in 10.0 mi NW 18.4 mph 27.6 mph N/A   Mostly Cloudy
11:55 PM -2.2 °F -25.2 °F -9.4 °F 71% 30.28 in 10.0 mi NW 20.7 mph 28.8 mph N/A   Mostly Cloudy